Simultaneous Nadir Overpasses (SNOs) Predictions

Prediction of SNOs between LANDSAT-8 and METOP-B Satellite Orbit:

Table of predicted SNOs for the next 14.0 days since TLE Epoch: 5/31/2014
Index Date (LANDSAT-8) Time (LANDSAT-8) Lat,Lon (LANDSAT-8) SZA (LANDSAT-8 ) Date (METOP-B) Time (METOP-B) Lat,Lon (METOP-B) SZA (METOP-B ) Distance(km) Time Diff (sec)
1 06/01/2014 12:27:40 -81.13,-146.83 118.71 06/01/2014 12:26:38 -81.13,-146.81 118.74 0.36 62
2 06/01/2014 13:17:05 81.16, 21.26 61.35 06/01/2014 13:17:17 81.16, 21.34 61.37 1.21 12
3 06/04/2014 08:01:57 -81.13, -80.41 119.08 06/04/2014 08:00:59 -81.14, -80.24 119.08 2.96 58
4 06/04/2014 08:51:22 81.16, 87.67 60.99 06/04/2014 08:51:39 81.15, 87.53 60.98 2.38 17
5 06/07/2014 03:36:12 -81.15, -13.72 119.35 06/07/2014 03:35:19 -81.14, -13.70 119.38 0.56 53
6
